Weather History for LKCV - September, 2013

Change the Weather History Date:

Wednesday, September 11, 2013

  Actual Average Record
Temperature  
Mean Temperature 56 °F -  
Max Temperature 62 °F - - ()
Min Temperature 51 °F - - ()
Degree Days  
Heating Degree Days 8    
Growing Degree Days 6 (Base 50)    
Moisture  
Dew Point 50 °F    
Average Humidity 80    
Maximum Humidity 100    
Minimum Humidity 55    
Precipitation  
Precipitation 0.00 in - - ()
Sea Level Pressure  
Sea Level Pressure 29.97 in    
Wind  
Wind Speed 5 mph ()    
Max Wind Speed 13 mph    
Max Gust Speed -    
Visibility 6.2 miles    
Events      
T = Trace of Precipitation, MM = Missing Value Source: Averaged Metar Reports

Daily Weather History Graph

Daily Weather History Graph

Search for Another Location

Airport or City:

Trip Planner

Search our weather history database for the weather conditions in past years. The results will help you decide how hot, cold, wet, or windy it might be!

Date:

Astronomy

Sep. 11, 2013 Rise Set
Actual Time 6:28 AM CEST 7:20 PM CEST
Civil Twilight 5:55 AM CEST 7:53 PM CEST
Nautical Twilight 5:16 AM CEST 8:32 PM CEST
Astronomical Twilight 4:34 AM CEST 9:14 PM CEST
Moon 1:15 PM CEST (9/11) 10:22 PM CEST (9/11)
Length of Visible Light 13h 57m
Length of Day
12h 52m
Waxing Crescent, 36% of the Moon is Illuminated
Sep 11
Waxing Crescent
Sep 12
First Quarter
Sep 19
Full
Sep 27
Last Quarter
Oct 5
New

Hourly Weather History & Observations

Time (CEST) Temp. Dew Point Humidity Pressure Visibility Wind Dir Wind Speed Gust Speed Precip Events Conditions
12:00 AM 55.4 °F 53.6 °F 94% 29.98 in - West 5.8 mph - N/A   Clear
1:00 AM 53.6 °F 51.8 °F 94% 30.01 in - West 8.1 mph - N/A   Clear
2:00 AM 53.6 °F 51.8 °F 94% 30.01 in - WSW 8.1 mph - N/A   Clear
3:00 AM 53.6 °F 51.8 °F 94% 30.01 in - WSW 4.6 mph - N/A   Clear
4:00 AM 53.6 °F 51.8 °F 94% 30.01 in - SW 5.8 mph - N/A   Clear
5:00 AM 51.8 °F 51.8 °F 100% 29.98 in - SW 3.5 mph - N/A   Clear
6:00 AM 51.8 °F 51.8 °F 100% 29.98 in - SSW 5.8 mph - N/A   Clear
7:00 AM 51.8 °F 50.0 °F 94% 29.98 in - WSW 5.8 mph - N/A   Clear
8:00 AM 53.6 °F 50.0 °F 88% 29.98 in - WSW 3.5 mph - N/A   Clear
9:00 AM 55.4 °F 50.0 °F 82% 29.98 in - South 3.5 mph - N/A   Clear
10:00 AM 57.2 °F 48.2 °F 72% 29.98 in - WSW 3.5 mph - N/A   Clear
11:00 AM 57.2 °F 50.0 °F 77% 29.98 in - SW 5.8 mph - N/A   Clear
12:00 PM 57.2 °F 50.0 °F 77% 29.98 in 6.2 mi SW 6.9 mph - N/A   Mostly Cloudy
1:00 PM 59.0 °F 50.0 °F 72% 29.98 in 6.2 mi SW 5.8 mph - N/A   Mostly Cloudy
2:00 PM 60.8 °F 46.4 °F 59% 29.95 in 6.2 mi West 11.5 mph - N/A   Mostly Cloudy
3:00 PM 62.6 °F 46.4 °F 55% 29.95 in 6.2 mi WSW 12.7 mph - N/A   Mostly Cloudy
4:00 PM 62.6 °F 48.2 °F 59% 29.95 in 6.2 mi WSW 9.2 mph - N/A   Mostly Cloudy
5:00 PM 60.8 °F 46.4 °F 59% 29.95 in 6.2 mi WSW 9.2 mph - N/A   Mostly Cloudy
6:00 PM 59.0 °F 48.2 °F 67% 29.95 in - West 5.8 mph - N/A   Clear
7:00 PM 57.2 °F 51.8 °F 82% 29.95 in - WSW 2.3 mph - N/A   Clear
8:00 PM 59.0 °F 51.8 °F 77% 29.95 in - South 2.3 mph - N/A   Clear
9:00 PM 57.2 °F 50.0 °F 77% 29.95 in - SSW 4.6 mph - N/A   Clear
10:00 PM 57.2 °F 50.0 °F 77% 29.95 in - SE 2.3 mph - N/A   Clear
11:00 PM 55.4 °F 51.8 °F 88% 29.95 in - East 1.2 mph - N/A   Clear